Location: Asheville, NC
(35.6000°N, 82.5500°W)
Time: 06:34:01

STARS - Pass Details

Date: 13 March 2018
Orbit: 625 x 641 km, 98.3° (Epoch: 16 March)

Event Time Altitude Azimuth Distance (km) Brightness Sun altitude
Rises 06:37:37 0° 154° (SSE) 2,927 ? -14.3°
Reaches altitude 10° 06:39:51 10° 149° (SSE) 2,023 ? -13.8°
Maximum altitude 06:44:07 51° 74° (ENE) 809 ? -12.9°
Drops below altitude 10° 06:48:24 10° 359° (N) 2,033 ? -12.1°
Sets 06:50:39 0° 354° (N) 2,945 ? -11.6°
